Location: Holmes Observatory
(37.1039°N, 122.0513°W)
Time: 07:16:34
(UTC-08:00)

Daily predictions for brighter satellites

Satellite Brightness Start Highest point End
(mag) Time Altitude Azimuth Time Altitude Azimuth Time Altitude Azimuth
Cosmos 2297 4.0 17:41:33 10° N 17:47:04 48° ENE 17:52:35 10° SE
Cosmos 1707 Rocket 4.4 17:45:15 10° NNE 17:49:01 28° ENE 17:52:45 10° SE
CZ-2C R/B 2.8 17:44:36 10° S 17:49:32 70° WSW 17:54:20 10° NNW
USA 215 4.4 17:45:48 10° ENE 17:50:48 24° NNE 17:55:46 10° NNW
CZ-3A R/B 3.7 17:47:10 10° NNW 17:51:31 27° NNE 17:56:08 10° E
COSMO-SKYMED 1 2.9 17:48:42 10° NNE 17:52:53 45° E 17:57:02 10° S
Cosmos 1634 Rocket 4.3 17:47:34 10° N 17:53:44 73° W 17:59:51 10° S
SMAP 3.5 17:50:35 10° S 17:55:13 70° WSW 17:59:52 10° NNW
COSMOS 2441 4.3 17:51:35 10° SSE 17:56:26 75° ENE 18:01:16 10° N
Cosmos 1666 Rocket 4.1 17:53:30 10° SSE 17:57:27 35° E 18:01:27 10° NNE
CORIOLIS 4.4 17:55:46 10° S 18:01:05 75° WSW 18:06:29 10° NNW
Cosmos 1626 2.5 17:58:57 10° SSE 18:02:31 44° E 18:06:05 10° NNE
Lacrosse 4 Rocket 2.6 18:01:37 10° N 18:04:46 21° NE 18:07:53 10° ESE
Milstar 3 4.5 18:02:21 10° WSW 18:08:21 29° SSW 18:14:04 10° SE
Cosmos 1184 Rocket 3.2 18:08:32 10° SSE 18:11:42 41° E 18:14:51 10° NNE
MONITOR-E 4.4 18:10:32 10° S 18:13:41 78° WSW 18:16:51 10° NNW
Resurs 01 Rocket 3.2 18:12:44 10° E 18:15:11 15° ENE 18:17:38 10° NNE
Cosmos 2058 4.0 18:12:24 10° SSW 18:16:21 46° W 18:20:19 10° N
Cosmos 1726 4.3 18:14:51 10° NNW 18:18:10 30° W 18:21:30 10° SSW
FREGAT/IRIS 3.9 18:17:45 10° SE 18:20:08 21° ENE 18:22:33 10° NNE
Tiangong 1 1.3 18:21:28 10° SW 18:24:22 49° SSE 18:25:53 23° E
Iridium 4 Rocket 3.6 18:24:47 10° SSE 18:28:50 35° E 18:32:42 10° NNE
Lacrosse 5 rocket 3.6 18:25:40 10° WNW 18:28:55 26° SW 18:32:18 10° S
Cosmos 1242 Rocket 3.5 18:26:09 10° NNE 18:29:03 24° ENE 18:31:57 10° SE
FAST Rocket 3.9 18:27:23 10° S 18:29:58 81° W 18:32:52 10° N
Cosmos 1470 Rocket 4.2 18:26:45 10° SSE 18:30:38 33° E 18:34:21 11° NNE
Spot 2 Rocket 4.5 18:27:58 10° ESE 18:31:58 24° ENE 18:35:58 10° NNE
USA 229 DEB 3.7 18:25:23 10° SSW 18:32:13 82° ESE 18:39:11 10° NE
USA 229 3.7 18:25:29 10° SSW 18:32:19 81° ESE 18:39:16 10° NE
Cosmos 1455 2.1 18:28:31 10° N 18:32:20 68° E 18:36:08 10° SSE
Cosmos 1805 Rocket 4.4 18:31:04 10° SSW 18:35:24 53° W 18:39:46 10° N
Cosmos 1356 Rocket 3.7 18:31:31 10° SSW 18:35:28 65° W 18:39:27 10° N
Cosmos 1603 3.7 18:30:32 10° S 18:36:01 58° ESE 18:41:26 10° NNE
Coronas F rocket 0.8 18:34:44 10° S 18:37:06 89° ESE 18:38:27 22° N
Centaur AC-119 4.2 18:38:17 10° S 18:39:49 14° SSE 18:41:17 12° SE
Aureole 1 Rocket 3.9 18:35:21 10° SSW 18:40:42 89° ESE 18:47:51 10° NNE
Sich 1 3.5 18:41:29 10° SSW 18:45:53 64° W 18:50:17 10° N
Cosmos 2242 Rocket 3.5 18:41:48 10° N 18:46:12 64° E 18:50:37 10° SSE
NOSS 3-1 (A) 4.3 18:41:44 10° SSE 18:46:25 27° ESE 18:47:36 25° E
SJ-6B 2.8 18:50:05 10° SSE 18:54:09 77° ENE 18:58:18 10° N
Nadezhda 4 Rocket 4.3 18:49:04 10° SSW 18:55:17 70° W 19:01:37 10° N
Cosmos 1633 Rocket 3.8 18:53:38 10° SSW 18:57:55 53° W 19:02:14 10° N
Cosmos 923 Rocket 4.0 18:53:31 10° SSW 18:58:44 84° WNW 19:03:49 11° NNE
Cosmos 2026 Rocket 4.1 18:52:58 10° SSE 18:58:53 49° E 19:04:46 10° NNE
Delta 2 Rocket 3.9 19:00:01 10° SW 19:02:56 31° SSE 19:02:56 31° SSE
Cosmos 1680 Rocket 3.4 18:59:27 10° SSW 19:04:40 83° ESE 19:08:36 18° NNE
Meteor 2-20 4.5 19:01:49 10° SSE 19:07:43 53° E 19:13:39 10° NNE
Cosmos 2369 Rocket 2.9 19:06:29 10° N 19:10:49 34° NE 19:10:49 34° NE
Cosmos 972 Rocket 4.4 19:09:26 10° N 19:14:39 48° ENE 19:15:21 45° E
SL-16 R/B 4.3 19:10:55 10° WSW 19:15:23 24° WNW 19:19:53 10° N
Lacrosse 5 4.2 19:14:19 10° N 19:14:47 11° N 19:14:47 11° N
ALOS 2.1 19:12:53 10° SSE 19:17:32 77° ENE 19:22:13 10° N
Cosmos 1092 Rocket 4.4 19:12:35 10° SSW 19:18:50 63° W 19:25:09 10° N
NOSS 3-1 (C) 3.2 19:17:31 10° SSW 19:23:11 74° ESE 19:24:57 47° NE
Genesis I 3.4 19:19:27 10° SSW 19:22:49 65° SSW 19:22:49 65° SSW
Cosmos 1862 Rocket 3.5 19:20:06 10° N 19:24:29 84° W 19:28:48 10° S
Cosmos 1428 Rocket 4.4 19:23:55 10° S 19:29:52 58° E 19:30:06 58° E
USA 215 3.2 19:31:27 52° E 19:32:59 67° NE 19:39:29 10° NW
FENGYUN 3A 3.6 19:27:43 10° S 19:33:04 81° WSW 19:38:28 10° NNW
In-Cosmos 22 Rocket 4.3 19:37:57 10° S 19:42:07 56° S 19:42:07 56° S
Lacrosse 4 Rocket 3.3 19:39:57 10° NW 19:43:26 28° WSW 19:46:12 14° SSW
Meteor 2-20 Rocket 4.3 19:43:04 10° S 19:49:10 89° WNW 19:50:36 56° N
Resurs 01 Rocket 2.5 19:46:57 10° S 19:51:14 47° W 19:55:32 10° NNW
Cosmos 1943 3.4 19:46:09 10° SSW 19:51:47 70° WNW 19:52:23 64° NNW
ATLAS 5 CENTAUR R/B 4.0 19:50:32 10° NNW 19:52:39 20° N 19:52:39 20° N
Cosmos 1943 Rocket 4.4 20:07:03 10° NNW 20:07:40 13° N 20:07:40 13° N
CZ-4C R/B 4.4 20:24:25 10° NNW 20:26:49 22° N 20:26:49 22° N
Cosmos 2369 Rocket 4.5 20:50:46 10° NW 20:52:42 19° WNW 20:52:42 19° WNW
